Timeline UpdatesTrip UpdatesNews PostsPvt Posts♥♥Travel TipsAdmin PostsConv PostsFollowed PostsChat RequestsBlog PostsPNR Posts

Disclaimer
Search
 
 
Thu Dec 18, 2014 22:54:46 ISTHomeTrainsΣChainsAtlasPNRForumGalleryNewsFAQTripsMembersLoginFeedback
PNR Super Search

Ticket PNR Status Inquiry - PNR: 266-xxxxxxx (PRS)

OLD STATUS

Status Last Updated on: May 22 2012 (5:23PM) IST

Date of Journey: Thu Jun 14, 2012   Class: Sleeper - SL   (Total Seats available for this Class/Quota: Avbl >122)
Passenger 1: Confirmed (Booking Status: RAC 9,RLGN)
Passenger 2: Confirmed (Booking Status: RAC 10,RLGN)
Passenger 3: Confirmed (Booking Status: RAC 11,RLGN)
Chart NOT Prepared

Paschim Express/12926

Travel Time: 15h 0m    15 halts    Distance: 981 km    Avg Speed: 65 km/hr
Type: SuperFast
Zone: WR/Western
Departs @ 19:15 (Avg 4m late)
Platform# 3
SMTWTFS
Mathura Junction/MTJ 
Arrives @ 10:15 +1 night (Avg 22m late)
Platform# 2
SMTWTFS
Surat/ST 

15 halts. 143 intermediate Stations between Mathura Junction and Surat

Show ALL intermediate Stations  Show Old Time-Table

#TrkCodeStation NameX/OArrivesAvgDepartsAvgHaltPFDay#KmSpeedElevZoneAddress
1/==/ASRAmritsar Junction (5)  -08:10+211-590.192233mNRAmritsar 143002, Punjab
2/==/BEASBeas Junction (2)  08:38+1208:40+122m21-547.172238mNRBeas, Punjab
3/==/JUCJalandhar City Junction (5)  09:10+1009:15+105m21-511.026239mNRJalandhar 144001, Punjab
4/==/JRCJalandhar Cantt. Junction (3)X  09:26+709:28+72m21-506.165239mNRNear Rama Mandi, Punjab
5/==/PGWPhagwara Junction (3)  09:43+609:45+62m11-489.871245mNRPhagwara, Punjab
6/==/LDHLudhiana Junction (7)  10:15+1510:25+1710m11-454.251246mNRLudhiana 141001, Punjab
7/==/KNNKhanna (3)  11:15+911:17+102m21-411.467269mNRNH 1, Punjab
8/==/SIRSirhind Junction (3)  11:33+911:35+92m21-393.478271mNRSirhind, Punjab
9/==/UBCAmbala City (3)X12:10+812:12+92m11-348.120273mNRNH-1, Haryana
10/==/UMBAmbala Cantt. Junction (7)O12:35+313:05+330m61-340.679278mNRAmbala 133001, Haryana
11/==/KKDEKurukshetra Junction (3)X  13:37+1513:39+152m21-298.574260mNRKurukshetra, Haryana
12/==/KUNKarnal (3)X  14:06+1314:08+132m11-265.465253mNRKarnal, Haryana
13/==/PNPPanipat Junction (5)  14:37 14:40+914:39 14:42+102m11-231.080235mNRPanipat, Haryana
14/==/SNPSonipat (3)X  15:10 15:16+1015:12 15:18+102m--1-185.861225mNRSonipat, Haryana
15/==/SZMDelhi Sabzi Mandi (2)  15:58+1216:00+132m21-145.410220mNRGulabi Bagh, Delhi NCT
16/==/NDLSNew Delhi (16)  16:25+816:50 16:45+825 20m51-141.360215mNRNew Delhi 110002, Delhi NCT
17/==/FDBFaridabad (4)  17:24 17:13+1617:25 17:15+161 2m31-113.259206mNRold Faridabad, Haryana
18/==/MTJMathura Junction (10)»  19:10+319:15+45m310.080179mNCRMathura, Uttar Pradesh
19/==/BTEBharatpur Junction (5)  19:40+1319:42+162m3133.587174mWCRBharatpur, Rajasthan
20/==/BXNBayana Junction (3)X  20:11+1920:13+192m2175.594198mWCRBayana, Rajasthan
21/==/HANHindaun City (2)  20:34+2420:36+242m11108.472230mWCRKarauli, Rajasthan
22/==/GGCGangapur City (3)21:13+2021:15+232m21152.785270mWCRGangapur, Rajasthan
23/==/SWMSawai Madhopur Junction (4)  22:00+2622:05+255m21216.674266mWCRSawai Madhopur, Rajasthan
24/==/KOTAKota Junction (5)  23:32+2923:45+2613m21324.481256mWCRKota, Rajasthan
25/==/RMARamganj Mandi Junction (3)X  00:38+3600:40+362m--2395.7107358mWCRRamganj Mandi, Rajasthan
26/==/SGZShamgarh (3)X  01:15+4101:17+422m--2458.045463mWCRMandsaur, Madhya Pradesh
27/==/NADNagda Junction (4)  03:18+1303:20+152m--2549.662468mWRNagda, Madhya Pradesh
28/==/RTMRatlam Junction (7)X  04:00+1704:20+1820m42591.076495mWRRatlam 457001, Madhya Pradesh
29/==/MGNMeghnagar (3)X  05:23+2105:25+212m--2671.383317mWRJhabua, Madhya Pradesh
30/==/DHDDahod (3)  05:49+3005:51+302m--2704.452313mWRDahod, Gujarat
31/==/GDAGodhra Junction (3)X  07:16+1007:18+122m12777.578122mWRGodhra, Gujarat
32/==/BRCVadodara Junction (7)  08:15+1708:25+1710m22851.48536mWRVadodara 390005, Gujarat
33/==/BHBharuch Junction (5)X  09:15+2409:17+242m22921.96119mWRBharuch, Gujarat
34/==/STSurat (4)•X  10:15+2210:20+235m22981.26319mWRSurat 395001, Gujarat
35/==/NVSNavsari (3)  10:48+2410:50+242m--21010.86214mWRNavsari, Gujarat
36/==/BLValsad (3)X  11:28+1911:30+202m--21049.97915mWRValsad, Gujarat
37/==/VAPIVapi (3)  11:50+2511:52+252m--21076.27327mWRVapi, Gujarat
38/==/DRDDahanu Road (5)X  12:32+2412:34+252m--21124.77012mWRDahanu, Maharashtra
39/==/BVIMumbai Borivali (8)X  13:51+713:54+73m621214.64019mWRMumbai - 400092, Maharashtra
40/==/ADHMumbai Andheri (9)  14:13+1314:16+133m821227.21312mWRMumbai, Maharashtra
41/==/BDTSMumbai Bandra Terminus (5)  14:45+5-521233.4-4mWRMumbai 400050, Maharashtra
Scroll to Top
Scroll to Bottom


Go to Mobile site